Tracking 28888 objects as of 22-May-2024
HD Live streaming from Space Station
objects crossing your sky now

STARLINK-6049

Track STARLINK-6049 now!
10-day predictions
STARLINK-6049 is classified as:


NORAD ID: 56796
Int'l Code: 2023-078AF
Perigee: 577.3 km
Apogee: 581.0 km
Inclination: 70.0 °
Period: 96.1 minutes
Semi major axis: 6950 km
RCS: Unknown
Launch date: May 31, 2023
Source: United States (US)
Launch site: AIR FORCE WESTERN TEST RANGE (AFWTR)
Your satellite tracking list
Your tracking list is empty




NASA's NSSDC Master Catalog

Two Line Element Set (TLE):
1 56796U 23078AF  24143.21160295  .00001104  00000-0  10027-3 0  9992
2 56796  70.0017 199.7719 0002694 264.6078  95.4773 14.98337456 54607
Source of the keplerian elements: AFSPC